GLOBALSTAR M092

Last updated on Sat Sep 05 2026 00:03:16 GMT+0000 (Coordinated Universal Time)

1 38043U 11080D 26247.27693809 -.00000090 00000+0 78474-4 0 9996 2 38043 52.0077 184.1608 0000458 59.8063 103.4971 12.62268310678037
UTC large
Height (km)
Speed (km/s)
/
Latitude / Longitude
Inclination (degrees)
Orbital Period (minutes)
Azimuth
Elevation
Range (km)
Doppler Factor

Next 0 passes for location: London (51.5072 / 0.1276)

No passes found over London.
GLOBALSTAR M092